LA1HSA-13 Weather Reports


Display with metric or nautical units.
time (UTC)temp
F
wind
direction
speed
MPH
gust
MPH
rain 1hr
in
rain 24hr
in
rain mn
in
humidity
%
barometer
mb
20260507080004 48 215 2.0 6.0 0.00 0.00 0.00 46 1016.5
20260507075003 48 210 2.0 7.0 0.00 0.00 0.00 46 1016.4
20260507074003 48 207 2.0 6.0 0.00 0.00 0.00 47 1016.7
20260507073003 47 202 2.0 4.0 0.00 0.00 0.00 48 1016.5
20260507072003 48 204 2.0 4.0 0.00 0.00 0.00 48 1016.3
20260507071003 46 203 1.0 4.0 0.00 0.00 0.00 49 1016.2
20260507070005 46 184 1.0 2.0 0.00 0.00 0.00 51 1016.2
20260507065003 45 0 0.0 4.0 0.00 0.00 0.00 50 1016.2
20260507064003 45 0 0.0 2.0 0.00 0.00 0.00 50 1016.3
20260507063003 44 0 0.0 2.0 0.00 0.00 0.00 54 1016.2
20260507062003 42 145 1.0 2.0 0.00 0.00 0.00 54 1016.1
20260507061003 40 118 1.0 2.0 0.00 0.00 0.00 57 1016.0
20260507060003 39 67 1.0 2.0 0.00 0.00 0.00 61 1016.1
20260507055003 37 0 0.0 2.0 0.00 0.00 0.00 63 1016.2
20260507054003 37 0 0.0 2.0 0.00 0.00 0.00 64 1015.7
20260507053004 36 0 0.0 0.0 0.00 0.00 0.00 65 1015.7
20260507052003 35 0 0.0 0.0 0.00 0.00 0.00 65 1015.7
20260507051003 35 0 0.0 0.0 0.00 0.00 0.00 67 1015.6
20260507050003 35 0 0.0 0.0 0.00 0.00 0.00 67 1015.9
20260507045003 35 0 0.0 0.0 0.00 0.00 0.00 66 1015.4
20260507044003 34 0 0.0 0.0 0.00 0.00 0.00 66 1015.4
20260507043003 33 0 0.0 0.0 0.00 0.00 0.00 69 1015.2
20260507042003 32 0 0.0 0.0 0.00 0.00 0.00 70 1015.3
20260507041003 31 0 0.0 0.0 0.00 0.00 0.00 71 1015.2
20260507040003 30 0 0.0 0.0 0.00 0.00 0.00 74 1015.3
20260507035003 30 0 0.0 0.0 0.00 0.00 0.00 73 1015.0
20260507034003 30 0 0.0 0.0 0.00 0.00 0.00 74 1014.8
20260507033003 30 0 0.0 0.0 0.00 0.00 0.00 75 1015.1
20260507032003 29 0 0.0 0.0 0.00 0.00 0.00 75 1015.0
20260507031003 30 0 0.0 0.0 0.00 0.00 0.00 74 1014.8
20260507030003 30 0 0.0 0.0 0.00 0.00 0.00 72 1014.9
20260507025003 31 0 0.0 0.0 0.00 0.00 0.00 69 1014.8
20260507024003 32 0 0.0 0.0 0.00 0.00 0.00 68 1014.5
20260507023003 32 0 0.0 0.0 0.00 0.00 0.00 69 1014.6
20260507022003 31 0 0.0 0.0 0.00 0.00 0.00 69 1014.4
20260507021003 32 0 0.0 0.0 0.00 0.00 0.00 67 1014.5
20260507020003 32 0 0.0 0.0 0.00 0.00 0.00 67 1014.6
20260507015003 32 0 0.0 0.0 0.00 0.00 0.00 67 1014.4
20260507014003 32 0 0.0 0.0 0.00 0.00 0.00 67 1014.2
20260507013003 32 0 0.0 0.0 0.00 0.00 0.00 66 1014.2
20260507012003 32 0 0.0 0.0 0.00 0.00 0.00 67 1014.4
20260507011003 33 0 0.0 0.0 0.00 0.00 0.00 65 1014.1
20260507010003 34 0 0.0 0.0 0.00 0.00 0.00 63 1013.9
20260507005003 34 0 0.0 0.0 0.00 0.00 0.00 62 1014.0
20260507004003 36 0 0.0 2.0 0.00 0.00 0.00 59 1013.6
20260507003003 36 58 1.0 4.0 0.00 0.00 0.00 56 1013.8
20260507002003 36 0 0.0 4.0 0.00 0.00 0.00 57 1013.6
20260507001003 36 60 2.0 4.0 0.00 0.00 0.00 58 1013.5
20260507000003 36 50 2.0 4.0 0.00 0.00 0.00 57 1013.6
20260506235003 36 65 2.0 4.0 0.00 0.00 0.00 57 1013.3
20260506234003 36 0 0.0 2.0 0.00 0.00 0.00 58 1013.7
20260506233003 38 0 0.0 2.0 0.00 0.00 0.00 53 1013.5
20260506232003 38 0 0.0 4.0 0.00 0.00 0.00 50 1013.4
20260506231003 39 70 2.0 4.0 0.00 0.00 0.00 49 1013.5
20260506230004 39 67 1.0 4.0 0.00 0.00 0.00 49 1013.2
20260506225003 39 0 0.0 2.0 0.00 0.00 0.00 50 1013.2
20260506224003 37 0 0.0 2.0 0.00 0.00 0.00 55 1013.2
20260506223003 38 67 1.0 2.0 0.00 0.00 0.00 53 1013.3
20260506222003 39 67 1.0 4.0 0.00 0.00 0.00 50 1013.1
20260506221003 41 88 2.0 4.0 0.00 0.00 0.00 45 1012.9
20260506220022 42 90 1.0 4.0 0.00 0.00 0.00 44 1012.9
20260506215003 41 85 1.0 4.0 0.00 0.00 0.00 44 1012.6
20260506214003 42 78 2.0 7.0 0.00 0.00 0.00 44 1012.7
20260506213003 42 76 3.0 7.0 0.00 0.00 0.00 43 1012.8
20260506212003 42 80 1.0 6.0 0.00 0.00 0.00 44 1012.6
20260506211003 41 0 0.0 4.0 0.00 0.00 0.00 45 1012.5
20260506210004 42 90 1.0 4.0 0.00 0.00 0.00 46 1012.3
20260506205003 41 0 0.0 4.0 0.00 0.00 0.00 47 1012.2
20260506204003 42 0 0.0 2.0 0.00 0.00 0.00 46 1012.3
20260506203003 43 92 1.0 4.0 0.00 0.00 0.00 45 1012.3
20260506202003 44 112 1.0 2.0 0.00 0.00 0.00 44 1012.2
20260506201003 45 101 1.0 2.0 0.00 0.00 0.00 41 1011.8
20260506200003 45 0 0.0 4.0 0.00 0.00 0.00 41 1011.8
20260506195003 46 72 2.0 6.0 0.00 0.00 0.00 39 1011.8
20260506194003 47 45 2.0 4.0 0.00 0.00 0.00 43 1011.8
20260506193003 47 38 1.0 4.0 0.00 0.00 0.00 41 1011.8
20260506192003 47 57 1.0 2.0 0.00 0.00 0.00 39 1011.5
20260506191003 48 0 0.0 4.0 0.00 0.00 0.00 38 1011.6
20260506190004 49 45 2.0 4.0 0.00 0.00 0.00 37 1011.7
20260506185003 50 60 2.0 4.0 0.00 0.00 0.00 36 1011.5
20260506184003 49 40 2.0 4.0 0.00 0.00 0.00 35 1011.4
20260506183003 49 35 1.0 4.0 0.00 0.00 0.00 36 1011.2
20260506182003 50 17 1.0 4.0 0.00 0.00 0.00 34 1011.0
20260506181003 50 22 1.0 4.0 0.00 0.00 0.00 34 1011.3
20260506180004 50 22 2.0 4.0 0.00 0.00 0.00 34 1011.0
20260506175003 50 16 2.0 6.0 0.00 0.00 0.00 33 1011.0
20260506174003 51 332 2.0 4.0 0.00 0.00 0.00 34 1011.0
20260506173003 51 1 2.0 4.0 0.00 0.00 0.00 33 1011.0
20260506172003 51 0 0.0 6.0 0.00 0.00 0.00 31 1010.9
20260506171003 51 53 2.0 4.0 0.00 0.00 0.00 32 1011.0
20260506170003 52 347 2.0 4.0 0.00 0.00 0.00 34 1011.1
20260506165003 53 42 1.0 6.0 0.00 0.00 0.00 32 1011.0
20260506164003 51 47 3.0 8.0 0.00 0.00 0.00 31 1011.1
20260506163004 52 21 4.0 7.0 0.00 0.00 0.00 31 1011.0
20260506162003 56 21 1.0 8.0 0.00 0.00 0.00 28 1011.1
20260506161003 54 47 3.0 9.0 0.00 0.00 0.00 29 1011.1
20260506160003 54 33 4.0 11.0 0.00 0.00 0.00 29 1011.0
20260506155003 56 329 2.0 6.0 0.00 0.00 0.00 29 1010.6
20260506154003 54 19 4.0 7.0 0.00 0.00 0.00 28 1011.0
20260506153003 56 343 2.0 6.0 0.00 0.00 0.00 28 1010.8
20260506152003 55 358 2.0 7.0 0.00 0.00 0.00 27 1011.1
20260506151003 56 317 3.0 9.0 0.00 0.00 0.00 29 1010.9
20260506150003 55 314 2.0 7.0 0.00 0.00 0.00 29 1011.1
20260506145003 54 35 4.0 9.0 0.00 0.00 0.00 28 1011.1
20260506144003 55 332 2.0 8.0 0.00 0.00 0.00 29 1011.4
20260506143003 54 346 4.0 7.0 0.00 0.00 0.00 28 1011.2
20260506142003 54 291 2.0 9.0 0.00 0.00 0.00 28 1011.6
20260506141003 57 28 2.0 4.0 0.00 0.00 0.00 28 1011.2
20260506140003 53 313 1.0 8.0 0.00 0.00 0.00 29 1011.5
20260506135003 54 328 3.0 7.0 0.00 0.00 0.00 27 1011.6
20260506134003 54 311 2.0 9.0 0.00 0.00 0.00 30 1011.6
20260506133003 54 318 2.0 11.0 0.00 0.00 0.00 29 1011.4
20260506132003 54 319 2.0 6.0 0.00 0.00 0.00 30 1011.6
20260506131003 53 300 3.0 8.0 0.00 0.00 0.00 26 1011.4
20260506130004 53 318 2.0 7.0 0.00 0.00 0.00 28 1011.5
20260506125003 53 290 2.0 9.0 0.00 0.00 0.00 26 1011.8
20260506124003 54 261 2.0 7.0 0.00 0.00 0.00 26 1011.8
20260506123004 54 315 2.0 7.0 0.00 0.00 0.00 26 1011.7
20260506122003 53 295 3.0 8.0 0.00 0.00 0.00 27 1011.8
20260506121003 52 359 1.0 6.0 0.00 0.00 0.00 30 1011.8
20260506120004 52 246 2.0 7.0 0.00 0.00 0.00 29 1012.1
20260506115003 52 298 3.0 8.0 0.00 0.00 0.00 30 1011.9
20260506114003 53 351 1.0 6.0 0.00 0.00 0.00 34 1012.2
20260506113003 51 32 4.0 8.0 0.00 0.00 0.00 36 1012.3
20260506112003 51 307 2.0 14.0 0.00 0.00 0.00 34 1012.2
20260506111003 52 301 2.0 8.0 0.00 0.00 0.00 34 1012.1
20260506110003 52 343 3.0 6.0 0.00 0.00 0.00 34 1012.1
20260506105003 50 23 1.0 7.0 0.00 0.00 0.00 37 1012.1
20260506104003 51 257 4.0 7.0 0.00 0.00 0.00 35 1012.2
20260506103003 52 332 1.0 6.0 0.00 0.00 0.00 33 1012.3
20260506102003 50 59 2.0 11.0 0.00 0.00 0.00 35 1012.4
20260506101003 51 283 3.0 9.0 0.00 0.00 0.00 34 1012.2
20260506100003 50 273 2.0 4.0 0.00 0.00 0.00 33 1012.4
20260506095003 50 321 2.0 6.0 0.00 0.00 0.00 32 1012.8
20260506094003 49 20 1.0 6.0 0.00 0.00 0.00 37 1012.5
20260506093003 49 28 2.0 8.0 0.00 0.00 0.00 38 1012.6
20260506092003 49 353 2.0 6.0 0.00 0.00 0.00 38 1012.5
20260506091003 49 305 2.0 9.0 0.00 0.00 0.00 37 1012.8
20260506090003 48 286 3.0 7.0 0.00 0.00 0.00 40 1012.6
20260506085004 48 1 2.0 6.0 0.00 0.00 0.00 41 1012.8
20260506084003 47 228 2.0 7.0 0.00 0.00 0.00 42 1012.8
20260506083003 47 0 0.0 6.0 0.00 0.00 0.00 45 1012.8
20260506082003 47 221 2.0 4.0 0.00 0.00 0.00 42 1012.7
20260506081003 47 204 1.0 6.0 0.00 0.00 0.00 45 1013.0